Year,Month,Day,Hour,Minute,Value (Times are PST for temperature in C)
2016,04,05,00,01,8.60
2016,04,05,00,02,8.60
2016,04,05,00,03,8.60
2016,04,05,00,04,8.60
2016,04,05,00,06,8.60
2016,04,05,00,07,8.60
2016,04,05,00,09,8.60
2016,04,05,00,11,8.60
2016,04,05,00,12,8.60
2016,04,05,00,13,8.60
2016,04,05,00,14,8.60
2016,04,05,00,16,8.60
2016,04,05,00,17,8.50
2016,04,05,00,18,8.50
2016,04,05,00,19,8.50
2016,04,05,00,21,8.50
2016,04,05,00,22,8.50
2016,04,05,00,23,8.50
2016,04,05,00,24,8.50
2016,04,05,00,26,8.50
2016,04,05,00,27,8.50
2016,04,05,00,28,8.50
2016,04,05,00,29,8.40
2016,04,05,00,31,8.40
2016,04,05,00,32,8.40
2016,04,05,00,33,8.40
2016,04,05,00,34,8.40
2016,04,05,00,36,8.40
2016,04,05,00,37,8.40
2016,04,05,00,38,8.40
2016,04,05,00,39,8.40
2016,04,05,00,41,8.40
2016,04,05,00,42,8.40
2016,04,05,00,43,8.40
2016,04,05,00,44,8.40
2016,04,05,00,45,8.40
2016,04,05,00,46,8.40
2016,04,05,00,47,8.40
2016,04,05,00,48,8.40
2016,04,05,00,49,8.40
2016,04,05,00,50,8.40
2016,04,05,00,51,8.40
2016,04,05,00,52,8.40
2016,04,05,00,53,8.40
2016,04,05,00,54,8.40
2016,04,05,00,55,8.40
2016,04,05,00,56,8.40
2016,04,05,00,57,8.30
2016,04,05,00,58,8.30
2016,04,05,00,59,8.30
2016,04,05,01,00,8.30
2016,04,05,01,04,8.30
2016,04,05,01,06,8.30
2016,04,05,01,07,8.30
2016,04,05,01,08,8.20
2016,04,05,01,09,8.20
2016,04,05,01,10,8.20
2016,04,05,01,11,8.20
2016,04,05,01,12,8.20
2016,04,05,01,13,8.20
2016,04,05,01,14,8.20
2016,04,05,01,15,8.20
2016,04,05,01,16,8.20
2016,04,05,01,17,8.20
2016,04,05,01,18,8.20
2016,04,05,01,19,8.20
2016,04,05,01,20,8.20
2016,04,05,01,21,8.20
2016,04,05,01,22,8.20
2016,04,05,01,23,8.20
2016,04,05,01,24,8.20
2016,04,05,01,25,8.20
2016,04,05,01,26,8.20
2016,04,05,01,27,8.20
2016,04,05,01,28,8.20
2016,04,05,01,29,8.20
2016,04,05,01,30,8.20
2016,04,05,01,31,8.20
2016,04,05,01,32,8.20
2016,04,05,01,33,8.20
2016,04,05,01,34,8.20
2016,04,05,01,35,8.20
2016,04,05,01,36,8.20
2016,04,05,01,37,8.10
2016,04,05,01,38,8.10
2016,04,05,01,39,8.10
2016,04,05,01,40,8.10
2016,04,05,01,41,8.10
2016,04,05,01,42,8.10
2016,04,05,01,43,8.10
2016,04,05,01,44,8.10
2016,04,05,01,45,8.10
2016,04,05,01,46,8.10
2016,04,05,01,47,8.10
2016,04,05,01,48,8.10
2016,04,05,01,49,8.10
2016,04,05,01,50,8.10
2016,04,05,01,51,8.10
2016,04,05,01,52,8.10
2016,04,05,01,53,8.10
2016,04,05,01,54,8.10
2016,04,05,01,55,8.10
2016,04,05,01,56,8.10
2016,04,05,01,57,8.10
2016,04,05,01,58,8.10
2016,04,05,01,59,8.10
2016,04,05,02,00,8.10
2016,04,05,02,01,8.10
2016,04,05,02,02,8.10
2016,04,05,02,03,8.10
2016,04,05,02,04,8.10
2016,04,05,02,05,8.10
2016,04,05,02,06,8.10
2016,04,05,02,07,8.10
2016,04,05,02,08,8.10
2016,04,05,02,09,8.10
2016,04,05,02,10,8.10
2016,04,05,02,11,8.10
2016,04,05,02,12,8.10
2016,04,05,02,13,8.10
2016,04,05,02,14,8.10
2016,04,05,02,15,8.20
2016,04,05,02,16,8.20
2016,04,05,02,18,8.20
2016,04,05,02,19,8.20
2016,04,05,02,21,8.20
2016,04,05,02,22,8.20
2016,04,05,02,23,8.20
2016,04,05,02,24,8.20
2016,04,05,02,26,8.20
2016,04,05,02,27,8.20
2016,04,05,02,28,8.20
2016,04,05,02,29,8.20
2016,04,05,02,31,8.20
2016,04,05,02,32,8.20
2016,04,05,02,33,8.20
2016,04,05,02,34,8.20
2016,04,05,02,36,8.20
2016,04,05,02,37,8.20
2016,04,05,02,38,8.20
2016,04,05,02,39,8.20
2016,04,05,02,41,8.20
2016,04,05,02,42,8.20
2016,04,05,02,43,8.20
2016,04,05,02,44,8.20
2016,04,05,02,46,8.20
2016,04,05,02,47,8.20
2016,04,05,02,48,8.20
2016,04,05,02,49,8.20
2016,04,05,02,51,8.20
2016,04,05,02,52,8.20
2016,04,05,02,53,8.20
2016,04,05,02,54,8.20
2016,04,05,02,56,8.20
2016,04,05,02,57,8.20
2016,04,05,02,58,8.20
2016,04,05,02,59,8.20
2016,04,05,03,01,8.20
2016,04,05,03,02,8.30
2016,04,05,03,03,8.30
2016,04,05,03,04,8.30
2016,04,05,03,06,8.30
2016,04,05,03,07,8.40
2016,04,05,03,08,8.40
2016,04,05,03,09,8.40
2016,04,05,03,11,8.40
2016,04,05,03,12,8.40
2016,04,05,03,13,8.40
2016,04,05,03,14,8.40
2016,04,05,03,16,8.40
2016,04,05,03,17,8.40
2016,04,05,03,18,8.40
2016,04,05,03,19,8.50
2016,04,05,03,21,8.50
2016,04,05,03,22,8.50
2016,04,05,03,23,8.50
2016,04,05,03,24,8.50
2016,04,05,03,26,8.50
2016,04,05,03,27,8.50
2016,04,05,03,28,8.60
2016,04,05,03,29,8.60
2016,04,05,03,31,8.60
2016,04,05,03,32,8.60
2016,04,05,03,33,8.60
2016,04,05,03,34,8.60
2016,04,05,03,36,8.60
2016,04,05,03,37,8.60
2016,04,05,03,38,8.60
2016,04,05,03,39,8.60
2016,04,05,03,40,8.60
2016,04,05,03,41,8.60
2016,04,05,03,42,8.70
2016,04,05,03,43,8.70
2016,04,05,03,44,8.70
2016,04,05,03,45,8.70
2016,04,05,03,46,8.70
2016,04,05,03,47,8.70
2016,04,05,03,48,8.70
2016,04,05,03,49,8.70
2016,04,05,03,50,8.70
2016,04,05,03,51,8.70
2016,04,05,03,52,8.70
2016,04,05,03,53,8.70
2016,04,05,03,54,8.70
2016,04,05,03,55,8.70
2016,04,05,03,56,8.70
2016,04,05,03,57,8.70
2016,04,05,03,58,8.80
2016,04,05,03,59,8.80
2016,04,05,04,00,8.80
2016,04,05,04,01,8.80
2016,04,05,04,02,8.80
2016,04,05,04,03,8.80
2016,04,05,04,04,8.90
2016,04,05,04,05,8.90
2016,04,05,04,06,8.90
2016,04,05,04,07,8.90
2016,04,05,04,08,8.90
2016,04,05,04,09,8.90
2016,04,05,04,10,8.90
2016,04,05,04,11,9.00
2016,04,05,04,12,9.00
2016,04,05,04,13,9.00
2016,04,05,04,14,9.00
2016,04,05,04,15,9.00
2016,04,05,04,16,9.00
2016,04,05,04,17,9.00
2016,04,05,04,18,9.00
2016,04,05,04,19,9.00
2016,04,05,04,20,9.00
2016,04,05,04,21,9.00
2016,04,05,04,22,9.00
2016,04,05,04,23,9.00
2016,04,05,04,24,9.00
2016,04,05,04,25,9.00
2016,04,05,04,26,9.00
2016,04,05,04,27,9.00
2016,04,05,04,28,9.00
2016,04,05,04,29,9.00
2016,04,05,04,30,9.00
2016,04,05,04,31,9.00
2016,04,05,04,32,9.00
2016,04,05,04,33,9.00
2016,04,05,04,34,9.00
2016,04,05,04,35,9.00
2016,04,05,04,36,9.00
2016,04,05,04,37,9.00
2016,04,05,04,38,9.00
2016,04,05,04,39,9.00
2016,04,05,04,40,9.00
2016,04,05,04,41,9.00
2016,04,05,04,42,9.00
2016,04,05,04,43,9.00
2016,04,05,04,44,9.00
2016,04,05,04,45,9.00
2016,04,05,04,46,8.90
2016,04,05,04,47,8.90
2016,04,05,04,48,8.90
2016,04,05,04,49,8.90
2016,04,05,04,50,8.90
2016,04,05,04,51,8.90
2016,04,05,04,52,8.80
2016,04,05,04,53,8.80
2016,04,05,04,54,8.80
2016,04,05,04,55,8.80
2016,04,05,04,56,8.80
2016,04,05,04,57,8.70
2016,04,05,04,58,8.70
2016,04,05,04,59,8.70
2016,04,05,05,00,8.70
2016,04,05,05,01,8.70
2016,04,05,05,02,8.70
2016,04,05,05,04,8.70
2016,04,05,05,06,8.70
2016,04,05,05,07,8.70
2016,04,05,05,08,8.70
2016,04,05,05,09,8.70
2016,04,05,05,11,8.60
2016,04,05,05,12,8.60
2016,04,05,05,13,8.60
2016,04,05,05,14,8.60
2016,04,05,05,16,8.60
2016,04,05,05,17,8.50
2016,04,05,05,18,8.50
2016,04,05,05,19,8.50
2016,04,05,05,21,8.50
2016,04,05,05,22,8.50
2016,04,05,05,23,8.50
2016,04,05,05,24,8.50
2016,04,05,05,26,8.40
2016,04,05,05,27,8.40
2016,04,05,05,28,8.40
2016,04,05,05,29,8.40
2016,04,05,05,31,8.40
2016,04,05,05,32,8.40
2016,04,05,05,33,8.40
2016,04,05,05,34,8.40
2016,04,05,05,36,8.30
2016,04,05,05,37,8.30
2016,04,05,05,38,8.30
2016,04,05,05,39,8.30
2016,04,05,05,41,8.30
2016,04,05,05,42,8.30
2016,04,05,05,43,8.30
2016,04,05,05,44,8.30
2016,04,05,05,46,8.30
2016,04,05,05,47,8.30
2016,04,05,05,48,8.30
2016,04,05,05,49,8.30
2016,04,05,05,51,8.30
2016,04,05,05,52,8.20
2016,04,05,05,53,8.20
2016,04,05,05,54,8.20
2016,04,05,05,56,8.20
2016,04,05,05,57,8.20
2016,04,05,05,58,8.20
2016,04,05,05,59,8.20
2016,04,05,06,01,8.20
2016,04,05,06,02,8.20
2016,04,05,06,03,8.20
2016,04,05,06,04,8.20
2016,04,05,06,06,8.20
2016,04,05,06,07,8.20
2016,04,05,06,08,8.20
2016,04,05,06,09,8.20
2016,04,05,06,11,8.20
2016,04,05,06,12,8.20
2016,04,05,06,13,8.20
2016,04,05,06,14,8.20
2016,04,05,06,15,8.20
2016,04,05,06,16,8.20
2016,04,05,06,17,8.20
2016,04,05,06,18,8.20
2016,04,05,06,19,8.20
2016,04,05,06,21,8.20
2016,04,05,06,22,8.20
2016,04,05,06,23,8.20
2016,04,05,06,24,8.20
2016,04,05,06,25,8.20
2016,04,05,06,26,8.20
2016,04,05,06,27,8.20
2016,04,05,06,28,8.20
2016,04,05,06,29,8.20
2016,04,05,06,31,8.20
2016,04,05,06,32,8.20
2016,04,05,06,33,8.20
2016,04,05,06,34,8.20
2016,04,05,06,35,8.20
2016,04,05,06,36,8.20
2016,04,05,06,37,8.20
2016,04,05,06,38,8.20
2016,04,05,06,39,8.20
2016,04,05,06,40,8.20
2016,04,05,06,41,8.20
2016,04,05,06,42,8.20
2016,04,05,06,43,8.20
2016,04,05,06,44,8.20
2016,04,05,06,45,8.20
2016,04,05,06,46,8.20
2016,04,05,06,47,8.20
2016,04,05,06,48,8.20
2016,04,05,07,28,8.20
2016,04,05,07,29,8.20
2016,04,05,07,30,8.30
2016,04,05,07,31,8.30
2016,04,05,07,32,8.30
2016,04,05,07,33,8.30
2016,04,05,07,34,8.30
2016,04,05,07,35,8.30
2016,04,05,07,36,8.30
2016,04,05,07,37,8.30
2016,04,05,07,38,8.30
2016,04,05,07,39,8.30
2016,04,05,07,40,8.30
2016,04,05,07,41,8.30
2016,04,05,07,42,8.30
2016,04,05,07,43,8.30
2016,04,05,07,44,8.30
2016,04,05,07,45,8.30
2016,04,05,07,46,8.30
2016,04,05,07,47,8.30
2016,04,05,07,48,8.30
2016,04,05,07,49,8.30
2016,04,05,07,50,8.30
2016,04,05,07,51,8.40
2016,04,05,07,52,8.40
2016,04,05,07,53,8.40
2016,04,05,07,54,8.40
2016,04,05,07,55,8.40
2016,04,05,07,56,8.50
2016,04,05,07,57,8.50
2016,04,05,07,58,8.50
2016,04,05,07,59,8.50
2016,04,05,08,00,8.60
2016,04,05,08,01,8.60
2016,04,05,08,02,8.60
2016,04,05,08,03,8.60
2016,04,05,08,04,8.60
2016,04,05,08,05,8.70
2016,04,05,08,06,8.70
2016,04,05,08,07,8.70
2016,04,05,08,08,8.70
2016,04,05,08,09,8.70
2016,04,05,08,10,8.70
2016,04,05,08,11,8.70
2016,04,05,08,12,8.70
2016,04,05,08,14,8.70
2016,04,05,08,16,8.70
2016,04,05,08,17,8.70
2016,04,05,08,18,8.70
2016,04,05,08,19,8.70
2016,04,05,08,21,8.70
2016,04,05,08,22,8.70
2016,04,05,08,23,8.70
2016,04,05,08,24,8.80
2016,04,05,08,26,8.80
2016,04,05,08,27,8.80
2016,04,05,08,28,8.80
2016,04,05,08,29,8.80
2016,04,05,08,31,8.80
2016,04,05,08,32,8.80
2016,04,05,08,33,8.90
2016,04,05,08,34,8.90
2016,04,05,08,36,8.90
2016,04,05,08,37,8.90
2016,04,05,08,38,8.90
2016,04,05,08,39,8.90
2016,04,05,08,41,8.90
2016,04,05,08,42,8.90
2016,04,05,08,43,8.90
2016,04,05,08,44,8.90
2016,04,05,08,46,8.90
2016,04,05,08,47,8.90
2016,04,05,08,48,8.90
2016,04,05,08,49,8.90
2016,04,05,08,51,8.90
2016,04,05,08,52,9.00
2016,04,05,08,53,9.00
2016,04,05,08,54,9.00
2016,04,05,08,56,9.00
2016,04,05,08,57,9.00
2016,04,05,08,58,9.00
2016,04,05,08,59,9.00
2016,04,05,09,01,9.00
2016,04,05,09,02,9.00
2016,04,05,09,03,9.00
2016,04,05,09,04,9.00
2016,04,05,09,06,9.00
2016,04,05,09,07,9.00
2016,04,05,09,08,9.00
2016,04,05,09,09,9.00
2016,04,05,09,11,9.00
2016,04,05,09,12,9.00
2016,04,05,09,13,9.00
2016,04,05,09,14,9.00
2016,04,05,09,16,9.10
2016,04,05,09,17,9.10
2016,04,05,09,18,9.10
2016,04,05,09,19,9.10
2016,04,05,09,21,9.10
2016,04,05,09,22,9.10
2016,04,05,09,23,9.10
2016,04,05,09,24,9.10
2016,04,05,09,25,9.10
2016,04,05,09,26,9.10
2016,04,05,09,27,9.10
2016,04,05,09,28,9.10
2016,04,05,09,29,9.10
2016,04,05,09,31,9.10
2016,04,05,09,32,9.20
2016,04,05,09,33,9.20
2016,04,05,09,34,9.20
2016,04,05,09,36,9.20
2016,04,05,09,37,9.20
2016,04,05,09,38,9.20
2016,04,05,09,39,9.20
2016,04,05,09,40,9.20
2016,04,05,09,41,9.20
2016,04,05,09,42,9.20
2016,04,05,09,43,9.10
2016,04,05,09,44,9.10
2016,04,05,09,45,9.10
2016,04,05,09,46,9.10
2016,04,05,09,47,9.10
2016,04,05,09,48,9.00
2016,04,05,09,49,9.10
2016,04,05,09,50,9.10
2016,04,05,09,51,9.10
2016,04,05,09,52,9.10
2016,04,05,09,53,9.10
2016,04,05,09,54,9.10
2016,04,05,09,55,9.10
2016,04,05,09,56,9.10
2016,04,05,09,57,9.10
2016,04,05,09,58,9.10
2016,04,05,09,59,9.10
2016,04,05,10,00,9.00
2016,04,05,10,01,9.00
2016,04,05,10,02,8.90
2016,04,05,10,03,8.90
2016,04,05,10,04,8.90
2016,04,05,10,05,8.90
2016,04,05,10,06,8.80
2016,04,05,10,07,8.80
2016,04,05,10,08,8.80
2016,04,05,10,09,8.70
2016,04,05,10,10,8.70
2016,04,05,10,11,8.70
2016,04,05,10,12,8.70
2016,04,05,10,13,8.70
2016,04,05,10,14,8.80
2016,04,05,10,15,8.80
2016,04,05,10,16,8.80
2016,04,05,10,17,8.80
2016,04,05,10,18,8.80
2016,04,05,10,19,8.80
2016,04,05,10,20,8.80
2016,04,05,10,21,8.80
2016,04,05,10,22,8.80
2016,04,05,10,23,8.80
2016,04,05,10,24,8.80
2016,04,05,10,25,8.80
2016,04,05,10,26,8.80
2016,04,05,10,27,8.90
2016,04,05,10,28,8.90
2016,04,05,10,29,8.90
2016,04,05,10,30,8.90
2016,04,05,10,31,8.90
2016,04,05,10,32,8.90
2016,04,05,10,33,8.90
2016,04,05,10,34,8.90
2016,04,05,10,35,8.90
2016,04,05,10,36,8.90
2016,04,05,10,37,9.00
2016,04,05,10,38,9.00
2016,04,05,10,39,9.00
2016,04,05,10,40,9.00
2016,04,05,10,41,9.00
2016,04,05,10,42,8.90
2016,04,05,10,43,8.90
2016,04,05,10,44,8.90
2016,04,05,10,45,9.00
2016,04,05,10,46,9.00
2016,04,05,10,47,9.00
2016,04,05,10,48,9.00
2016,04,05,10,49,9.00
2016,04,05,10,50,9.10
2016,04,05,10,51,9.10
2016,04,05,10,52,9.10
2016,04,05,10,53,9.10
2016,04,05,10,54,9.20
2016,04,05,10,55,9.20
2016,04,05,10,56,9.20
2016,04,05,10,57,9.10
2016,04,05,10,58,9.10
2016,04,05,10,59,9.10
2016,04,05,11,00,9.10
2016,04,05,11,01,9.10
2016,04,05,11,02,9.10
2016,04,05,11,03,9.10
2016,04,05,11,04,9.10
2016,04,05,11,05,9.10
2016,04,05,11,06,9.20
2016,04,05,11,08,9.20
2016,04,05,11,09,9.20
2016,04,05,11,11,9.20
2016,04,05,11,12,9.20
2016,04,05,11,13,9.20
2016,04,05,11,14,9.20
2016,04,05,11,16,9.20
2016,04,05,11,17,9.20
2016,04,05,11,18,9.20
2016,04,05,11,19,9.20
2016,04,05,11,21,9.20
2016,04,05,11,22,9.20
2016,04,05,11,23,9.10
2016,04,05,11,24,9.10
2016,04,05,11,26,9.10
2016,04,05,11,27,9.10
2016,04,05,11,28,9.20
2016,04,05,11,29,9.20
2016,04,05,11,31,9.20
2016,04,05,11,32,9.20
2016,04,05,11,33,9.20
2016,04,05,11,34,9.20
2016,04,05,11,36,9.20
2016,04,05,11,37,9.20
2016,04,05,11,38,9.20
2016,04,05,11,39,9.20
2016,04,05,11,41,9.20
2016,04,05,11,42,9.20
2016,04,05,11,43,9.20
2016,04,05,11,44,9.20
2016,04,05,11,46,9.20
2016,04,05,11,47,9.20
2016,04,05,11,48,9.20
2016,04,05,11,49,9.20
2016,04,05,11,51,9.20
2016,04,05,11,52,9.20
2016,04,05,11,53,9.20
2016,04,05,11,54,9.20
2016,04,05,11,56,9.20
2016,04,05,11,57,9.20
2016,04,05,11,58,9.20
2016,04,05,11,59,9.20
2016,04,05,12,01,9.20
2016,04,05,12,02,9.20
2016,04,05,12,03,9.20
2016,04,05,12,04,9.20
2016,04,05,12,06,9.20
2016,04,05,12,07,9.20
2016,04,05,12,08,9.20
2016,04,05,12,09,9.20
2016,04,05,12,28,9.20
2016,04,05,12,29,9.20
2016,04,05,12,30,9.20
2016,04,05,12,31,9.20
2016,04,05,12,32,9.20
2016,04,05,12,33,9.20
2016,04,05,12,34,9.20
2016,04,05,12,35,9.20
2016,04,05,12,36,9.20
2016,04,05,12,37,9.20
2016,04,05,12,38,9.20
2016,04,05,12,39,9.20
2016,04,05,12,40,9.20
2016,04,05,12,41,9.20
2016,04,05,12,42,9.20
2016,04,05,12,43,9.20
2016,04,05,12,44,9.20
2016,04,05,12,45,9.30
2016,04,05,12,46,9.30
2016,04,05,12,47,9.30
2016,04,05,12,48,9.30
2016,04,05,12,49,9.40
2016,04,05,12,50,9.40
2016,04,05,12,51,9.40
2016,04,05,12,52,9.40
2016,04,05,12,53,9.50
2016,04,05,12,54,9.50
2016,04,05,12,55,9.50
2016,04,05,12,56,9.60
2016,04,05,12,57,9.60
2016,04,05,12,58,9.60
2016,04,05,12,59,9.60
2016,04,05,13,00,9.60
2016,04,05,13,01,9.60
2016,04,05,13,02,9.60
2016,04,05,13,03,9.60
2016,04,05,13,04,9.60
2016,04,05,13,05,9.60
2016,04,05,13,06,9.60
2016,04,05,13,07,9.60
2016,04,05,13,08,9.60
2016,04,05,13,09,9.60
2016,04,05,13,11,9.60
2016,04,05,13,13,9.60
2016,04,05,13,14,9.60
2016,04,05,13,16,9.70
2016,04,05,13,17,9.70
2016,04,05,13,18,9.70
2016,04,05,13,19,9.70
2016,04,05,13,21,9.70
2016,04,05,13,22,9.70
2016,04,05,13,23,9.70
2016,04,05,13,24,9.70
2016,04,05,13,26,9.80
2016,04,05,13,27,9.80
2016,04,05,13,28,9.80
2016,04,05,13,29,9.80
2016,04,05,13,31,9.80
2016,04,05,13,32,9.90
2016,04,05,13,33,9.90
2016,04,05,13,34,9.90
2016,04,05,13,36,9.90
2016,04,05,13,37,9.90
2016,04,05,13,38,9.90
2016,04,05,13,39,9.90
2016,04,05,13,41,10.10
2016,04,05,13,42,10.10
2016,04,05,13,43,10.10
2016,04,05,13,44,10.10
2016,04,05,13,46,10.20
2016,04,05,13,47,10.30
2016,04,05,13,48,10.30
2016,04,05,13,49,10.30
2016,04,05,13,51,10.30
2016,04,05,13,52,10.30
2016,04,05,13,53,10.30
2016,04,05,13,54,10.30
2016,04,05,13,56,10.30
2016,04,05,13,57,10.30
2016,04,05,13,58,10.40
2016,04,05,13,59,10.40
2016,04,05,14,01,10.40
2016,04,05,14,02,10.40
2016,04,05,14,03,10.40
2016,04,05,14,04,10.30
2016,04,05,14,06,10.30
2016,04,05,14,07,10.30
2016,04,05,14,08,10.30
2016,04,05,14,09,10.20
2016,04,05,14,11,10.20
2016,04,05,14,12,10.20
2016,04,05,14,13,10.10
2016,04,05,14,14,10.10
2016,04,05,14,16,10.10
2016,04,05,14,17,10.10
2016,04,05,14,18,10.10
2016,04,05,14,19,10.10
2016,04,05,14,21,10.10
2016,04,05,14,22,10.10
2016,04,05,14,23,10.10
2016,04,05,14,24,10.10
2016,04,05,14,26,10.10
2016,04,05,14,27,10.10
2016,04,05,14,28,10.10
2016,04,05,14,29,9.90
2016,04,05,14,30,9.90
2016,04,05,14,31,9.90
2016,04,05,14,32,9.90
2016,04,05,14,33,9.90
2016,04,05,14,34,9.90
2016,04,05,14,35,9.90
2016,04,05,14,36,9.90
2016,04,05,14,37,9.90
2016,04,05,14,38,9.90
2016,04,05,14,39,9.90
2016,04,05,14,40,9.90
2016,04,05,14,41,9.90
2016,04,05,14,42,9.90
2016,04,05,14,43,10.10
2016,04,05,14,44,10.10
2016,04,05,14,45,10.10
2016,04,05,14,46,10.10
2016,04,05,14,47,10.10
2016,04,05,14,48,10.10
2016,04,05,14,49,10.10
2016,04,05,14,50,10.10
2016,04,05,14,51,10.10
2016,04,05,14,52,10.10
2016,04,05,14,53,10.10
2016,04,05,15,28,10.60
2016,04,05,15,29,10.60
2016,04,05,15,30,10.60
2016,04,05,15,31,10.60
2016,04,05,15,32,10.60
2016,04,05,15,33,10.60
2016,04,05,15,34,10.60
2016,04,05,15,35,10.60
2016,04,05,15,36,10.60
2016,04,05,15,37,10.60
2016,04,05,15,38,10.60
2016,04,05,15,39,10.70
2016,04,05,15,40,10.70
2016,04,05,15,41,10.70
2016,04,05,15,42,10.70
2016,04,05,15,43,10.70
2016,04,05,15,44,10.70
2016,04,05,15,45,10.70
2016,04,05,15,46,10.60
2016,04,05,15,47,10.70
2016,04,05,15,48,10.70
2016,04,05,15,49,10.70
2016,04,05,15,50,10.70
2016,04,05,15,51,10.80
2016,04,05,15,52,10.80
2016,04,05,15,53,10.80
2016,04,05,15,54,10.80
2016,04,05,15,55,10.80
2016,04,05,15,56,10.80
2016,04,05,15,57,10.80
2016,04,05,15,58,10.80
2016,04,05,15,59,10.80
2016,04,05,16,00,10.80
2016,04,05,16,01,10.80
2016,04,05,16,02,10.80
2016,04,05,16,03,10.80
2016,04,05,16,04,10.70
2016,04,05,16,05,10.70
2016,04,05,16,06,10.70
2016,04,05,16,07,10.70
2016,04,05,16,08,10.60
2016,04,05,16,09,10.60
2016,04,05,16,10,10.60
2016,04,05,16,12,10.60
2016,04,05,16,13,10.60
2016,04,05,16,14,10.60
2016,04,05,16,16,10.70
2016,04,05,16,17,10.70
2016,04,05,16,18,10.70
2016,04,05,16,19,10.70
2016,04,05,16,21,10.80
2016,04,05,16,22,10.80
2016,04,05,16,23,10.80
2016,04,05,16,24,10.80
2016,04,05,16,26,10.90
2016,04,05,16,27,10.90
2016,04,05,16,28,10.90
2016,04,05,16,29,10.90
2016,04,05,16,31,10.90
2016,04,05,16,32,10.90
2016,04,05,16,33,10.90
2016,04,05,16,34,10.90
2016,04,05,16,36,10.80
2016,04,05,16,37,10.80
2016,04,05,16,38,10.80
2016,04,05,16,39,10.90
2016,04,05,16,41,10.90
2016,04,05,16,42,10.90
2016,04,05,16,43,10.90
2016,04,05,16,44,10.90
2016,04,05,16,46,10.90
2016,04,05,16,47,10.90
2016,04,05,16,48,10.90
2016,04,05,16,49,10.90
2016,04,05,16,51,10.80
2016,04,05,16,52,10.80
2016,04,05,16,53,10.80
2016,04,05,16,54,10.80
2016,04,05,16,56,10.80
2016,04,05,16,57,10.80
2016,04,05,16,58,10.80
2016,04,05,16,59,10.90
2016,04,05,17,01,10.90
2016,04,05,17,02,10.90
2016,04,05,17,03,10.90
2016,04,05,17,04,10.90
2016,04,05,17,06,10.90
2016,04,05,17,07,10.90
2016,04,05,17,08,10.90
2016,04,05,17,09,10.90
2016,04,05,17,11,10.90
2016,04,05,17,12,10.90
2016,04,05,17,13,10.90
2016,04,05,17,14,10.90
2016,04,05,17,16,10.90
2016,04,05,17,17,10.90
2016,04,05,17,18,10.90
2016,04,05,17,19,10.90
2016,04,05,17,21,10.90
2016,04,05,17,22,10.90
2016,04,05,17,23,10.90
2016,04,05,17,24,10.90
2016,04,05,17,25,10.90
2016,04,05,17,26,10.90
2016,04,05,17,27,10.90
2016,04,05,17,28,10.90
2016,04,05,17,29,10.90
2016,04,05,17,30,10.90
2016,04,05,17,31,10.90
2016,04,05,17,32,10.90
2016,04,05,17,33,10.90
2016,04,05,17,34,10.90
2016,04,05,17,35,10.90
2016,04,05,17,36,10.90
2016,04,05,17,37,10.90
2016,04,05,17,38,10.90
2016,04,05,17,39,10.90
2016,04,05,17,40,10.90
2016,04,05,17,41,10.90
2016,04,05,17,42,10.90
2016,04,05,17,43,10.90
2016,04,05,17,44,10.90
2016,04,05,17,45,10.90
2016,04,05,17,46,10.90
2016,04,05,17,47,10.90
2016,04,05,17,48,10.90
2016,04,05,17,49,10.90
2016,04,05,17,50,10.90
2016,04,05,17,51,10.90
2016,04,05,17,52,10.90
2016,04,05,17,53,10.90
2016,04,05,17,54,10.90
2016,04,05,17,55,10.80
2016,04,05,17,56,10.80
2016,04,05,17,57,10.80
2016,04,05,17,58,10.80
2016,04,05,17,59,10.80
2016,04,05,18,00,10.70
2016,04,05,18,01,10.70
2016,04,05,18,02,10.70
2016,04,05,18,03,10.70
2016,04,05,18,04,10.70
2016,04,05,18,05,10.70
2016,04,05,18,06,10.70
2016,04,05,18,07,10.70
2016,04,05,18,08,10.70
2016,04,05,18,09,10.70
2016,04,05,18,10,10.70
2016,04,05,18,11,10.70
2016,04,05,18,12,10.70
2016,04,05,18,13,10.70
2016,04,05,18,14,10.70
2016,04,05,18,15,10.70
2016,04,05,18,16,10.70
2016,04,05,18,17,10.70
2016,04,05,18,18,10.70
2016,04,05,18,19,10.70
2016,04,05,18,20,10.70
2016,04,05,18,21,10.70
2016,04,05,18,22,10.70
2016,04,05,18,23,10.70
2016,04,05,18,24,10.80
2016,04,05,18,25,10.80
2016,04,05,18,26,10.80
2016,04,05,18,27,10.80
2016,04,05,18,28,10.80
2016,04,05,18,29,10.80
2016,04,05,18,30,10.80
2016,04,05,18,31,10.90
2016,04,05,18,32,10.90
2016,04,05,18,33,10.90
2016,04,05,18,34,10.90
2016,04,05,18,35,10.90
2016,04,05,18,36,10.90
2016,04,05,18,37,10.90
2016,04,05,18,38,10.90
2016,04,05,18,39,10.90
2016,04,05,18,40,10.90
2016,04,05,18,41,10.90
2016,04,05,18,42,10.90
2016,04,05,18,43,10.90
2016,04,05,18,44,10.90
2016,04,05,18,45,10.90
2016,04,05,18,46,10.90
2016,04,05,18,47,10.90
2016,04,05,18,48,10.90
2016,04,05,18,49,10.90
2016,04,05,18,50,10.90
2016,04,05,18,51,10.90
2016,04,05,18,52,10.90
2016,04,05,18,53,10.90
2016,04,05,18,54,10.90
2016,04,05,18,55,10.90
2016,04,05,18,56,10.90
2016,04,05,18,57,10.90
2016,04,05,18,59,10.90
2016,04,05,19,00,10.90
2016,04,05,19,02,11.10
2016,04,05,19,03,11.10
2016,04,05,19,04,11.10
2016,04,05,19,06,10.90
2016,04,05,19,07,10.90
2016,04,05,19,08,10.90
2016,04,05,19,09,10.90
2016,04,05,19,11,10.90
2016,04,05,19,12,10.90
2016,04,05,19,13,10.90
2016,04,05,19,14,10.90
2016,04,05,19,16,10.90
2016,04,05,19,17,10.90
2016,04,05,19,18,10.90
2016,04,05,19,19,10.90
2016,04,05,19,21,10.90
2016,04,05,19,22,10.90
2016,04,05,19,23,10.90
2016,04,05,19,24,10.90
2016,04,05,19,26,10.90
2016,04,05,19,27,10.90
2016,04,05,19,28,10.90
2016,04,05,19,29,10.90
2016,04,05,19,31,10.90
2016,04,05,19,32,10.90
2016,04,05,19,33,10.90
2016,04,05,19,34,10.90
2016,04,05,19,36,10.80
2016,04,05,19,37,10.80
2016,04,05,19,38,10.80
2016,04,05,19,39,10.80
2016,04,05,19,41,10.80
2016,04,05,19,42,10.80
2016,04,05,19,43,10.80
2016,04,05,19,44,10.80
2016,04,05,19,46,10.80
2016,04,05,19,47,10.70
2016,04,05,19,48,10.70
2016,04,05,19,49,10.70
2016,04,05,19,51,10.70
2016,04,05,19,52,10.70
2016,04,05,19,53,10.70
2016,04,05,19,54,10.70
2016,04,05,19,56,10.70
2016,04,05,19,57,10.70
2016,04,05,19,58,10.70
2016,04,05,19,59,10.70
2016,04,05,20,01,10.70
2016,04,05,20,02,10.60
2016,04,05,20,03,10.60
2016,04,05,20,04,10.60
2016,04,05,20,06,10.60
2016,04,05,20,07,10.60
2016,04,05,20,08,10.60
2016,04,05,20,09,10.60
2016,04,05,20,11,10.60
2016,04,05,20,12,10.60
2016,04,05,20,13,10.60
2016,04,05,20,14,10.60
2016,04,05,20,15,10.60
2016,04,05,20,16,10.60
2016,04,05,20,17,10.60
2016,04,05,20,18,10.60
2016,04,05,20,19,10.60
2016,04,05,20,20,10.60
2016,04,05,20,21,10.60
2016,04,05,20,22,10.60
2016,04,05,20,23,10.60
2016,04,05,20,24,10.60
2016,04,05,20,25,10.60
2016,04,05,20,26,10.60
2016,04,05,20,27,10.60
2016,04,05,20,28,10.60
2016,04,05,20,29,10.60
2016,04,05,20,30,10.60
2016,04,05,20,31,10.60
2016,04,05,20,32,10.60
2016,04,05,20,33,10.60
2016,04,05,20,34,10.60
2016,04,05,20,35,10.60
2016,04,05,20,36,10.60
2016,04,05,20,37,10.60
2016,04,05,20,38,10.60
2016,04,05,20,39,10.60
2016,04,05,20,40,10.60
2016,04,05,20,41,10.60
2016,04,05,20,42,10.60
2016,04,05,20,43,10.60
2016,04,05,20,44,10.60
2016,04,05,20,45,10.60
2016,04,05,20,46,10.60
2016,04,05,20,47,10.60
2016,04,05,20,48,10.60
2016,04,05,20,49,10.60
2016,04,05,20,50,10.60
2016,04,05,20,51,10.60
2016,04,05,20,52,10.60
2016,04,05,20,53,10.60
2016,04,05,20,54,10.60
2016,04,05,20,55,10.60
2016,04,05,20,56,10.60
2016,04,05,20,57,10.60
2016,04,05,20,58,10.60
2016,04,05,20,59,10.60
2016,04,05,21,00,10.60
2016,04,05,21,01,10.60
2016,04,05,21,02,10.60
2016,04,05,21,03,10.60
2016,04,05,21,04,10.60
2016,04,05,21,05,10.60
2016,04,05,21,06,10.60
2016,04,05,21,07,10.60
2016,04,05,21,08,10.60
2016,04,05,21,09,10.60
2016,04,05,21,10,10.60
2016,04,05,21,11,10.60
2016,04,05,21,12,10.60
2016,04,05,21,13,10.60
2016,04,05,21,14,10.60
2016,04,05,21,15,10.60
2016,04,05,21,16,10.60
2016,04,05,21,17,10.40
2016,04,05,21,18,10.40
2016,04,05,21,19,10.40
2016,04,05,21,20,10.40
2016,04,05,21,21,10.40
2016,04,05,21,22,10.40
2016,04,05,21,23,10.40
2016,04,05,21,24,10.40
2016,04,05,21,25,10.40
2016,04,05,21,27,10.40